Regional Weather Roundup
Issued by NWS Bismarck, ND

Home | Current Version | Previous Version | Text Only | Print | Product List | Glossary On
Versions: 1 2 3 4 5 6 7 8 9 10 11 12 13 14 15 16 17 18 19 20 21 22 23 24 25 26 27 28 29 30 31 32 33 34 35 36 37 38 39 40 41 42 43 44 45 46 47 48 49 50
000
ASUS43 KBIS 011201
RWRBIS

NWR BROADCAST TEXT
NATIONAL WEATHER SERVICE BISMARCK ND
600 AM CST SUN FEB 01 2015

NOTE: "FAIR" INDICATES FEW OR NO CLOUDS BELOW 12,000 FEET WITH NO
SIGNIFICANT WEATHER AND/OR OBSTRUCTIONS TO VISIBILITY.


CITY           SKY/WX    TMP DP  RH WIND       PRES   REMARKS
WILLISTON      PTCLDY   -15 -20  78 NW6       30.50R WCI -29
MINOT          MOCLDY   -10 -18  67 NW6       30.50S WCI -23
MINOT AFB      MOCLDY    -8 -16  68 NW6       30.51S WCI -22
BISMARCK       CLOUDY    -5 -14  65 N8        30.49R WCI -20
DICKINSON      CLOUDY    -4 -10  75 N7        30.37S WCI -18
GARRISON         N/A     -8 -15  71 N5        30.47S WCI -19
HETTINGER ARPT LGT SNOW  -3  -8  79 N10       30.37R WCI -20
JAMESTOWN      CLOUDY    -7 -15  68 N15       30.44F WCI -28
CARRINGTON     FAIR      -9 -17  70 MISG      30.49R
CROSBY         FAIR      -9 -15  77 W6        30.51R WCI -23
HAZEN          CLOUDY    -6 -15  65 N7        30.50S WCI -20
LINTON         CLOUDY    -4 -11  71 N13       30.43R HAZE    WCI -23
OAKES            N/A     -2 -11  65 N18G25    30.41R WCI -24
WATFORD CITY   FAIR      -8 -13  77 CALM      30.46R
$$

CITY           SKY/WX    TMP DP  RH WIND       PRES   REMARKS
GRAND FORKS    PTCLDY   -11 -19  68 N17       30.57S WCI -35
GRAND FORKS AF PTCLDY   -12 -21  64 N13G21    30.57S WCI -33
DEVILS LAKE    PTCLDY   -11 -24  53 NE8       30.49S WCI -28
FARGO          CLOUDY    -5 -14  65 N21       30.47S WCI -29
GWINNER        CLOUDY    -2 -13  60 N23G29    30.42R WCI -26
$$

CITY           SKY/WX    TMP DP  RH WIND       PRES   REMARKS
ABERDEEN       LGT SNOW  -1  -9  68 N25G31    30.37R WCI -25
MOBRIDGE       FLURRIES  -3 -10  72 N16       30.38R WCI -24
BUFFALO          N/A      0  -6  76 N10       30.26R WCI -16
RAPID CITY     CLOUDY     5   1  83 N20       30.26R WCI -15
GLASGOW        PTCLDY    -3  -6  87 SE3       30.46R
SIDNEY         MOCLDY   -11 -17  77 W3        30.51R
WOLF POINT     PTCLDY    -6 -11  79 CALM      30.51R
GLENDIVE       PTCLDY    -6 -11  77 CALM      30.43S
MILES CITY     FLURRIES   1  -3  83 CALM      30.43R
BAKER          PTCLDY    -4  -8  83 NW7       30.37R WCI -18
$$

CITY           SKY/WX    TMP DP  RH WIND       PRES   REMARKS
BILLINGS       PTCLDY     7   4  87 E3        30.34S
GREAT FALLS    MOCLDY    -2  -5  87 SW6       30.26F WCI -14
$$




USA.gov is the U.S. government's official web portal to all federal, state and local government web resources and services.